316  
ASUS44 KOHX 282010  
RWROHX  
MIDDLE TENNESSEE HOURLY WEATHER ROUNDUP  
NATIONAL WEATHER SERVICE NASHVILLE TN  
300 PM CDT WED JUN 28 2017  
 
NOTE: "FAIR" INDICATES FEW OR NO CLOUDS BELOW 12,000 FEET WITH  
NO SIGNIFICANT WEATHER AND/OR S TO VISIBILITY
.  
 
* THESE REPORTS ARE NOT UNDER NWS QUALITY CONTROL AND MAY NOT  
REPORT WEATHER SUCH AS PRECIPITATION AND FOG.
 
 
 
TNZ005>011-023>034-057-059-062>066-078-080-282100   
..NORTHERN MIDDLE TENNESSEE
 
 
 
CITY SKY/WX TMP DP RH WIND PRES REMARKS
 
CLARKSVILLE SUNNY 84 59 42 SW10 30.05F  
CROSSVILLE SUNNY 79 47 32 SW3 30.17F  
GALLATIN SUNNY 86 55 35 VRB5 30.10F  
DICKSON MOSUNNY 84 60 44 S12 30.07F  
NASHVILLE MOSUNNY 86 55 34 S3 30.07F  
PORTLAND SUNNY 82 57 42 SE6G13 30.08F  
SMYRNA SUNNY 85 59 41 E8 30.08F  
SPARTA SUNNY 82 52 34 SW7 30.12S  
SPRINGFIELD SUNNY 84 59 42 S8 30.06F  
WEST NASHVILLE SUNNY 86 57 37 VRB7 30.04F  

 
TNZ056-058-060-061-075>077-079-093>097-282100   
..SOUTHERN MIDDLE TENNESSEE
 
 
 
CITY SKY/WX TMP DP RH WIND PRES REMARKS
 
COLUMBIA SUNNY 84 61 45 S8 30.05F  
FAYETTEVILLE SUNNY 82 61 47 E7 30.09F  
MCMINNVILLE SUNNY 84 57 39 SE6 30.12F  
MURFREESBORO SUNNY 86 54 33 VRB6 30.07F  
PULASKI SUNNY 86 63 45 VRB5 30.07F  
SHELBYVILLE SUNNY 84 55 37 CALM 30.09F  
TULLAHOMA SUNNY 82 52 34 VRB7 30.12F  
WINCHESTER SUNNY 86 59 39 VRB3 30.10F  

 
 
   
..KEY TO REMARKS
 
 
VSB - VISIBILITY IN MILES  
WCI - WIND CHILL INDEX  
HX - HEAT INDEX  
 
 
 
CLICK HERE TO GO TO PREVIOUS BULLETINS.

The Nexlab TN Page Main Text Page